Weather History for Sallisaw, OK

Change the Weather History Date:

Friday, November 8, 2013

  Actual Average Record
Temperature  
Mean Temperature 52 °F -  
Max Temperature 68 °F 62 °F 83 °F (1980)
Min Temperature 35 °F 40 °F 17 °F (1991)
Degree Days  
Heating Degree Days 14    
Growing Degree Days 2 (Base 50)    
Moisture  
Dew Point 38 °F    
Average Humidity 66    
Maximum Humidity 100    
Minimum Humidity 28    
Precipitation  
Precipitation 0.00 in - - ()
Sea Level Pressure  
Sea Level Pressure 30.26 in    
Wind  
Wind Speed 4 mph (SE)    
Max Wind Speed 12 mph    
Max Gust Speed 20 mph    
Visibility 10 miles    
Events      
Averages and records for this station are not official NWS values.
T = Trace of Precipitation, MM = Missing Value Source: NWS Daily Summary

Daily Weather History Graph

Daily Weather History Graph

Search for Another Location

Airport:

Trip Planner

Search our weather history database for the weather conditions in past years. The results will help you decide how hot, cold, wet, or windy it might be!

Date:

Astronomy

Nov. 08, 2013 Rise Set
Actual Time 6:47 AM CST 5:17 PM CST
Civil Twilight 6:21 AM CST 5:44 PM CST
Nautical Twilight 5:50 AM CST 6:14 PM CST
Astronomical Twilight 5:20 AM CST 6:44 PM CST
Moon 11:44 AM CST (11/8) 10:38 PM CST (11/8)
Length of Visible Light 11h 23m
Length of Day
10h 29m
Waxing Crescent, 33% of the Moon is Illuminated
Nov 8
Waxing Crescent
Nov 9
First Quarter
Nov 17
Full
Nov 25
Last Quarter
Dec 2
New

Hourly Weather History & Observations

Time (CST) Temp. Windchill Dew Point Humidity Pressure Visibility Wind Dir Wind Speed Gust Speed Precip Events Conditions
12:15 AM 37.4 °F 34.9 °F 37.4 °F 100% 30.37 in 10.0 mi ENE 3.5 mph - N/A   Clear
12:35 AM 37.4 °F - 37.4 °F 100% 30.37 in 10.0 mi Calm Calm - N/A   Clear
12:55 AM 37.4 °F - 37.4 °F 100% 30.37 in 10.0 mi Calm Calm - N/A   Clear
1:15 AM 37.4 °F - 37.4 °F 100% 30.37 in 10.0 mi Calm Calm - N/A   Clear
1:35 AM 37.4 °F 34.9 °F 37.4 °F 100% 30.36 in 10.0 mi ENE 3.5 mph - N/A   Clear
1:55 AM 37.4 °F 34.9 °F 37.4 °F 100% 30.36 in 10.0 mi ENE 3.5 mph - N/A   Clear
2:15 AM 37.4 °F 34.9 °F 37.4 °F 100% 30.35 in 10.0 mi ENE 3.5 mph - N/A   Clear
2:35 AM 37.4 °F - 35.6 °F 93% 30.36 in 10.0 mi Calm Calm - N/A   Clear
2:55 AM 35.6 °F - 35.6 °F 100% 30.35 in 10.0 mi Calm Calm - N/A   Clear
3:15 AM 35.6 °F - 35.6 °F 100% 30.35 in 10.0 mi Calm Calm - N/A   Clear
3:35 AM 37.4 °F - 35.6 °F 93% 30.35 in 10.0 mi Calm Calm - N/A   Clear
3:55 AM 35.6 °F - 35.6 °F 100% 30.35 in 10.0 mi Calm Calm - N/A   Clear
4:15 AM 37.4 °F - 37.4 °F 100% 30.35 in 10.0 mi Calm Calm - N/A   Clear
4:35 AM 35.6 °F - 35.6 °F 100% 30.35 in 10.0 mi Calm Calm - N/A   Clear
4:55 AM 37.4 °F - 37.4 °F 100% 30.35 in 10.0 mi Calm Calm - N/A   Clear
5:15 AM 35.6 °F - 35.6 °F 100% 30.35 in 10.0 mi Calm Calm - N/A   Clear
5:35 AM 35.6 °F 32.8 °F 35.6 °F 100% 30.35 in 10.0 mi ENE 3.5 mph - N/A   Clear
5:55 AM 37.4 °F 33.8 °F 35.6 °F 93% 30.35 in 10.0 mi ENE 4.6 mph - N/A   Clear
6:15 AM 37.4 °F 33.8 °F 37.4 °F 100% 30.34 in 10.0 mi ENE 4.6 mph - N/A   Clear
6:35 AM 37.4 °F 32.8 °F 37.4 °F 100% 30.34 in 10.0 mi ENE 5.8 mph - N/A   Clear
6:55 AM 37.4 °F 33.8 °F 35.6 °F 93% 30.34 in 10.0 mi NE 4.6 mph - N/A   Clear
7:15 AM 37.4 °F 32.8 °F 37.4 °F 100% 30.34 in 10.0 mi ENE 5.8 mph - N/A   Clear
7:35 AM 39.2 °F 35.0 °F 37.4 °F 93% 30.34 in 10.0 mi ENE 5.8 mph - N/A   Clear
7:55 AM 41.0 °F 37.1 °F 37.4 °F 87% 30.34 in 10.0 mi ENE 5.8 mph - N/A   Clear
8:15 AM 42.8 °F 41.1 °F 37.4 °F 81% 30.34 in 10.0 mi ENE 3.5 mph - N/A   Clear
8:35 AM 44.6 °F 42.2 °F 39.2 °F 81% 30.35 in 10.0 mi East 4.6 mph - N/A   Clear
8:55 AM 46.4 °F 44.3 °F 41.0 °F 81% 30.34 in 10.0 mi East 4.6 mph - N/A   Clear
9:15 AM 50.0 °F - 42.8 °F 76% 30.34 in 10.0 mi East 4.6 mph - N/A   Clear
9:35 AM 51.8 °F - 41.0 °F 67% 30.33 in 10.0 mi ENE 6.9 mph - N/A   Clear
9:55 AM 53.6 °F - 41.0 °F 62% 30.33 in 10.0 mi ESE 5.8 mph - N/A   Clear
10:15 AM 55.4 °F - 41.0 °F 58% 30.33 in 10.0 mi SSE 4.6 mph - N/A   Clear
10:35 AM 55.4 °F - 41.0 °F 58% 30.32 in 10.0 mi East 4.6 mph - N/A   Clear
10:55 AM 59.0 °F - 41.0 °F 51% 30.31 in 10.0 mi ESE 6.9 mph - N/A   Clear
11:15 AM 59.0 °F - 37.4 °F 45% 30.30 in 10.0 mi ESE 6.9 mph - N/A   Clear
11:35 AM 60.8 °F - 37.4 °F 42% 30.30 in 10.0 mi SSE 5.8 mph - N/A   Clear
11:55 AM 60.8 °F - 39.2 °F 45% 30.28 in 10.0 mi SE 5.8 mph - N/A   Clear
12:15 PM 62.6 °F - 39.2 °F 42% 30.26 in 10.0 mi ESE 5.8 mph - N/A   Clear
12:35 PM 62.6 °F - 39.2 °F 42% 30.25 in 10.0 mi SE 8.1 mph - N/A   Clear
12:55 PM 64.4 °F - 39.2 °F 40% 30.23 in 10.0 mi SSE 8.1 mph - N/A   Clear
1:15 PM 68.0 °F - 35.6 °F 30% 30.22 in 10.0 mi South 11.5 mph - N/A   Clear
1:35 PM 66.2 °F - 35.6 °F 32% 30.21 in 10.0 mi SSE 8.1 mph - N/A   Clear
1:55 PM 68.0 °F - 35.6 °F 30% 30.20 in 10.0 mi South 8.1 mph 16.1 mph N/A   Clear
2:15 PM 68.0 °F - 33.8 °F 28% 30.20 in 10.0 mi South 8.1 mph - N/A   Clear
2:35 PM 66.2 °F - 35.6 °F 32% 30.19 in 10.0 mi SSE 6.9 mph - N/A   Clear
2:55 PM 68.0 °F - 33.8 °F 28% 30.18 in 10.0 mi SSW 11.5 mph 19.6 mph N/A   Clear
3:15 PM 68.0 °F - 33.8 °F 28% 30.17 in 10.0 mi SSW 10.4 mph - N/A   Clear
3:35 PM 66.2 °F - 33.8 °F 30% 30.17 in 10.0 mi South 6.9 mph - N/A   Clear
3:55 PM 64.4 °F - 35.6 °F 34% 30.16 in 10.0 mi SSE 9.2 mph - N/A   Clear
4:15 PM 64.4 °F - 37.4 °F 37% 30.16 in 10.0 mi South 3.5 mph - N/A   Clear
4:35 PM 64.4 °F - 37.4 °F 37% 30.16 in 10.0 mi South 8.1 mph - N/A   Clear
4:55 PM 62.6 °F - 33.8 °F 34% 30.16 in 10.0 mi South 11.5 mph 17.3 mph N/A   Clear
5:15 PM 62.6 °F - 35.6 °F 37% 30.16 in 10.0 mi South 6.9 mph - N/A   Clear
5:35 PM 60.8 °F - 35.6 °F 39% 30.15 in 10.0 mi South 5.8 mph - N/A   Clear
5:55 PM 59.0 °F - 37.4 °F 45% 30.15 in 10.0 mi South 5.8 mph - N/A   Clear
6:15 PM 59.0 °F - 37.4 °F 45% 30.15 in 10.0 mi SSE 5.8 mph - N/A   Clear
6:35 PM 59.0 °F - 37.4 °F 45% 30.14 in 10.0 mi SSE 5.8 mph - N/A   Clear
6:55 PM 57.2 °F - 37.4 °F 48% 30.14 in 10.0 mi SSE 5.8 mph - N/A   Clear
7:15 PM 57.2 °F - 37.4 °F 48% 30.14 in 10.0 mi SSE 6.9 mph - N/A   Clear
7:35 PM 57.2 °F - 37.4 °F 48% 30.14 in 10.0 mi SE 3.5 mph - N/A   Clear
7:55 PM 55.4 °F - 37.4 °F 51% 30.14 in 10.0 mi East 4.6 mph - N/A   Clear
8:15 PM 53.6 °F - 37.4 °F 54% 30.14 in 10.0 mi ESE 3.5 mph - N/A   Clear
8:35 PM 53.6 °F - 39.2 °F 58% 30.15 in 10.0 mi Calm Calm - N/A   Clear
8:55 PM 53.6 °F - 39.2 °F 58% 30.14 in 10.0 mi SE 3.5 mph - N/A   Clear
9:15 PM 53.6 °F - 39.2 °F 58% 30.15 in 10.0 mi Calm Calm - N/A   Clear
9:35 PM 53.6 °F - 39.2 °F 58% 30.15 in 10.0 mi Calm Calm - N/A   Clear
9:55 PM 51.8 °F - 41.0 °F 67% 30.16 in 10.0 mi Calm Calm - N/A   Clear
10:15 PM 51.8 °F - 41.0 °F 67% 30.16 in 10.0 mi Calm Calm - N/A   Clear
10:35 PM 51.8 °F - 41.0 °F 67% 30.16 in 10.0 mi SE 3.5 mph - N/A   Clear
10:55 PM 51.8 °F - 41.0 °F 67% 30.16 in 10.0 mi Calm Calm - N/A   Clear
11:15 PM 51.8 °F - 39.2 °F 62% 30.15 in 10.0 mi Calm Calm - N/A   Clear
11:35 PM 48.2 °F - 41.0 °F 76% 30.16 in 10.0 mi SSE 4.6 mph - N/A   Clear
11:55 PM 50.0 °F - 41.0 °F 71% 30.15 in 10.0 mi SSE 4.6 mph - N/A   Clear